Time,TemperatureF,DewpointF,PressureIn,WindDirection,WindDirectionDegrees,WindSpeedMPH,WindSpeedGustMPH,Humidity,HourlyPrecipIn,Conditions,Clouds,dailyrainin,SoftwareType,DateUTC
2013-09-11 00:00:00,77.5,67.8,29.98,North,0,3.0,7.0,72,0.00,,,0.00,meteohub,2013-09-11 05:00:00,
2013-09-11 00:05:00,77.5,68.2,29.97,North,0,4.0,8.0,73,0.00,,,0.00,meteohub,2013-09-11 05:05:00,
2013-09-11 00:10:00,77.5,68.2,29.98,North,0,5.0,8.0,73,0.00,,,0.00,meteohub,2013-09-11 05:10:00,
2013-09-11 00:15:00,77.2,68.2,29.98,NE,45,4.0,8.0,74,0.00,,,0.00,meteohub,2013-09-11 05:15:00,
2013-09-11 00:21:00,77.0,68.5,29.98,North,0,6.0,7.0,75,0.00,,,0.00,meteohub,2013-09-11 05:21:00,
2013-09-11 00:26:00,76.5,68.0,29.97,NE,45,4.0,8.0,75,0.00,,,0.00,meteohub,2013-09-11 05:26:00,
2013-09-11 00:31:00,76.6,68.5,29.98,WNW,293,9.0,9.0,76,0.00,,,0.00,meteohub,2013-09-11 05:31:00,
2013-09-11 00:36:00,76.3,68.2,29.98,NE,45,4.0,9.0,76,0.00,,,0.00,meteohub,2013-09-11 05:36:00,
2013-09-11 00:41:00,76.1,68.4,29.98,NNE,23,7.0,9.0,77,0.00,,,0.00,meteohub,2013-09-11 05:41:00,
2013-09-11 00:46:00,75.9,68.2,29.98,NE,45,4.0,9.0,77,0.00,,,0.00,meteohub,2013-09-11 05:46:00,
2013-09-11 00:51:00,75.6,67.8,29.99,WSW,248,5.0,9.0,77,0.00,,,0.00,meteohub,2013-09-11 05:51:00,
2013-09-11 00:56:00,75.4,68.0,29.99,NW,315,9.0,9.0,78,0.00,,,0.00,meteohub,2013-09-11 05:56:00,
2013-09-11 01:01:00,75.2,67.8,29.99,North,0,3.0,9.0,78,0.00,,,0.00,meteohub,2013-09-11 06:01:00,
2013-09-11 01:06:00,75.2,67.8,29.99,North,0,3.0,9.0,78,0.00,,,0.00,meteohub,2013-09-11 06:06:00,
2013-09-11 01:11:00,74.8,67.8,29.99,North,0,4.0,9.0,79,0.00,,,0.00,meteohub,2013-09-11 06:11:00,
2013-09-11 01:16:00,74.7,67.6,29.99,North,0,3.0,5.0,79,0.00,,,0.00,meteohub,2013-09-11 06:16:00,
2013-09-11 01:22:00,74.5,67.5,30.00,NE,45,2.0,5.0,79,0.00,,,0.00,meteohub,2013-09-11 06:22:00,
2013-09-11 01:27:00,74.3,67.6,29.99,East,90,2.0,4.0,80,0.00,,,0.00,meteohub,2013-09-11 06:27:00,
2013-09-11 01:32:00,73.9,67.5,29.99,East,90,0.0,4.0,80,0.00,,,0.00,meteohub,2013-09-11 06:32:00,
2013-09-11 01:37:00,73.6,67.1,30.00,East,90,0.0,3.0,80,0.00,,,0.00,meteohub,2013-09-11 06:37:00,
2013-09-11 01:42:00,73.6,67.1,30.00,North,0,2.0,3.0,80,0.00,,,0.00,meteohub,2013-09-11 06:42:00,
2013-09-11 01:47:00,73.8,67.3,30.00,West,270,4.0,4.0,80,0.00,,,0.00,meteohub,2013-09-11 06:47:00,
2013-09-11 01:52:00,73.8,67.3,30.00,North,0,3.0,4.0,80,0.00,,,0.00,meteohub,2013-09-11 06:52:00,
2013-09-11 01:57:00,73.9,67.5,30.00,North,0,3.0,4.0,80,0.00,,,0.00,meteohub,2013-09-11 06:57:00,
2013-09-11 02:02:00,73.8,67.3,30.00,North,0,3.0,4.0,80,0.00,,,0.00,meteohub,2013-09-11 07:02:00,
2013-09-11 02:07:00,73.6,67.8,30.01,NE,45,3.0,4.0,82,0.00,,,0.00,meteohub,2013-09-11 07:07:00,
2013-09-11 02:12:00,73.2,67.5,30.01,NE,45,2.0,4.0,82,0.00,,,0.00,meteohub,2013-09-11 07:12:00,
2013-09-11 02:17:00,73.0,67.6,30.01,North,0,3.0,3.0,83,0.00,,,0.00,meteohub,2013-09-11 07:17:00,
2013-09-11 02:22:00,73.0,67.6,30.01,North,0,5.0,5.0,83,0.00,,,0.00,meteohub,2013-09-11 07:22:00,
2013-09-11 02:27:00,73.0,67.6,30.01,NNE,23,4.0,5.0,83,0.00,,,0.00,meteohub,2013-09-11 07:27:00,
2013-09-11 02:32:00,72.9,67.5,30.01,NE,45,8.0,8.0,83,0.00,,,0.00,meteohub,2013-09-11 07:32:00,
2013-09-11 02:37:00,72.9,66.0,30.01,North,0,8.0,8.0,79,0.00,,,0.00,meteohub,2013-09-11 07:37:00,
2013-09-11 02:42:00,72.9,66.4,30.01,NE,45,7.0,11.0,80,0.00,,,0.00,meteohub,2013-09-11 07:42:00,
2013-09-11 02:47:00,72.3,66.6,30.01,North,0,8.0,11.0,82,0.00,,,0.00,meteohub,2013-09-11 07:47:00,
2013-09-11 02:52:00,71.6,64.8,30.01,NNE,23,10.0,11.0,79,0.00,,,0.00,meteohub,2013-09-11 07:52:00,
2013-09-11 02:57:00,71.2,63.7,30.01,North,0,8.0,11.0,77,0.00,,,0.00,meteohub,2013-09-11 07:57:00,
2013-09-11 03:02:00,70.9,63.3,30.01,North,0,6.0,11.0,77,0.00,,,0.00,meteohub,2013-09-11 08:02:00,
2013-09-11 03:07:00,70.9,63.3,30.00,North,0,6.0,11.0,77,0.00,,,0.00,meteohub,2013-09-11 08:07:00,
2013-09-11 03:12:00,70.2,63.7,30.01,NE,45,2.0,10.0,80,0.00,,,0.00,meteohub,2013-09-11 08:12:00,
2013-09-11 03:17:00,70.0,63.9,30.01,ENE,68,2.0,6.0,81,0.00,,,0.00,meteohub,2013-09-11 08:17:00,
2013-09-11 03:22:00,69.8,64.4,30.01,NE,45,2.0,6.0,83,0.00,,,0.00,meteohub,2013-09-11 08:22:00,
2013-09-11 03:27:00,69.6,64.6,30.01,NE,45,2.0,4.0,84,0.00,,,0.00,meteohub,2013-09-11 08:27:00,
2013-09-11 03:32:00,69.4,64.8,30.01,NE,45,2.0,3.0,85,0.00,,,0.00,meteohub,2013-09-11 08:32:00,
2013-09-11 03:37:00,69.4,65.1,30.01,North,0,2.0,3.0,86,0.00,,,0.00,meteohub,2013-09-11 08:37:00,
2013-09-11 03:42:00,69.4,65.1,30.01,North,0,1.0,3.0,86,0.00,,,0.00,meteohub,2013-09-11 08:42:00,
2013-09-11 03:47:00,69.4,65.1,30.01,North,0,0.0,2.0,86,0.00,,,0.00,meteohub,2013-09-11 08:47:00,
2013-09-11 03:52:00,69.4,65.1,30.01,East,90,0.0,2.0,86,0.00,,,0.00,meteohub,2013-09-11 08:52:00,
2013-09-11 03:57:00,69.4,65.1,30.02,East,90,0.0,2.0,86,0.00,,,0.00,meteohub,2013-09-11 08:57:00,
2013-09-11 04:02:00,69.4,65.1,30.01,East,90,0.0,0.0,86,0.00,,,0.00,meteohub,2013-09-11 09:02:00,
2013-09-11 04:07:00,69.4,64.8,30.01,East,90,0.0,0.0,85,0.00,,,0.00,meteohub,2013-09-11 09:07:00,
2013-09-11 04:12:00,69.8,65.5,30.01,North,0,0.0,0.0,86,0.00,,,0.00,meteohub,2013-09-11 09:12:00,
2013-09-11 04:18:00,70.0,65.7,30.01,North,0,0.0,0.0,86,0.00,,,0.00,meteohub,2013-09-11 09:18:00,
2013-09-11 04:23:00,70.0,65.3,30.01,North,0,0.0,0.0,85,0.00,,,0.00,meteohub,2013-09-11 09:23:00,
2013-09-11 04:28:00,70.0,65.3,30.01,North,0,0.0,0.0,85,0.00,,,0.00,meteohub,2013-09-11 09:28:00,
2013-09-11 04:33:00,70.0,65.3,30.01,East,90,0.0,0.0,85,0.00,,,0.00,meteohub,2013-09-11 09:33:00,
2013-09-11 04:38:00,69.8,65.1,30.01,East,90,0.0,0.0,85,0.00,,,0.00,meteohub,2013-09-11 09:38:00,
2013-09-11 04:43:00,69.8,65.5,30.01,North,0,0.0,0.0,86,0.00,,,0.00,meteohub,2013-09-11 09:43:00,
2013-09-11 04:48:00,70.0,66.0,30.02,North,0,0.0,0.0,87,0.00,,,0.00,meteohub,2013-09-11 09:48:00,
2013-09-11 04:53:00,70.0,65.7,30.02,North,0,0.0,0.0,86,0.00,,,0.00,meteohub,2013-09-11 09:53:00,
2013-09-11 04:58:00,70.2,65.5,30.01,North,0,0.0,0.0,85,0.00,,,0.00,meteohub,2013-09-11 09:58:00,
2013-09-11 05:03:00,70.2,65.5,30.01,North,0,0.0,0.0,85,0.00,,,0.00,meteohub,2013-09-11 10:03:00,
2013-09-11 05:08:00,70.2,65.1,30.01,North,0,0.0,0.0,84,0.00,,,0.00,meteohub,2013-09-11 10:08:00,
2013-09-11 05:13:00,70.2,65.1,30.01,North,0,0.0,0.0,84,0.00,,,0.00,meteohub,2013-09-11 10:13:00,
2013-09-11 05:18:00,70.0,64.6,30.02,North,0,0.0,0.0,83,0.00,,,0.00,meteohub,2013-09-11 10:18:00,
2013-09-11 05:23:00,70.0,64.9,30.03,NW,315,0.0,0.0,84,0.00,,,0.00,meteohub,2013-09-11 10:23:00,
2013-09-11 05:29:00,69.8,65.1,30.03,NW,315,0.0,0.0,85,0.00,,,0.00,meteohub,2013-09-11 10:29:00,
2013-09-11 05:34:00,69.8,65.1,30.04,NW,315,0.0,0.0,85,0.00,,,0.00,meteohub,2013-09-11 10:34:00,
2013-09-11 05:39:00,69.8,63.7,30.11,West,270,23.0,23.0,81,0.00,,,0.00,meteohub,2013-09-11 10:39:00,
2013-09-11 05:44:00,70.7,63.5,30.11,SW,225,12.0,15.0,78,0.00,,,0.00,meteohub,2013-09-11 10:44:00,
2013-09-11 05:49:00,69.8,65.1,30.09,NW,315,15.0,23.0,85,0.00,,,0.00,meteohub,2013-09-11 10:49:00,
2013-09-11 05:54:00,68.5,65.5,30.10,NW,315,8.0,23.0,90,0.07,,,0.00,meteohub,2013-09-11 10:54:00,
2013-09-11 05:59:00,67.8,65.5,30.10,NW,315,4.0,23.0,92,0.07,,,0.07,meteohub,2013-09-11 10:59:00,
2013-09-11 06:04:00,67.3,65.8,30.09,North,0,7.0,17.0,95,0.07,,,0.07,meteohub,2013-09-11 11:04:00,
2013-09-11 06:09:00,66.7,65.8,30.08,North,0,8.0,13.0,97,0.07,,,0.07,meteohub,2013-09-11 11:09:00,
2013-09-11 06:14:00,66.2,65.7,30.07,North,0,5.0,13.0,98,0.11,,,0.11,meteohub,2013-09-11 11:14:00,
2013-09-11 06:19:00,66.0,65.7,30.07,North,0,6.0,12.0,99,0.13,,,0.13,meteohub,2013-09-11 11:19:00,
2013-09-11 06:24:00,65.8,65.5,30.06,North,0,8.0,12.0,99,0.13,,,0.13,meteohub,2013-09-11 11:24:00,
2013-09-11 06:29:00,65.7,65.3,30.06,NNE,23,6.0,12.0,99,0.14,,,0.14,meteohub,2013-09-11 11:29:00,
2013-09-11 06:34:00,65.7,65.3,30.06,NE,45,6.0,8.0,99,0.14,,,0.14,meteohub,2013-09-11 11:34:00,
2013-09-11 06:40:00,65.5,65.1,30.06,NE,45,3.0,8.0,99,0.15,,,0.15,meteohub,2013-09-11 11:40:00,
2013-09-11 06:45:00,65.3,64.9,30.05,NE,45,5.0,8.0,99,0.15,,,0.15,meteohub,2013-09-11 11:45:00,
2013-09-11 06:50:00,65.3,64.9,30.07,West,270,2.0,6.0,99,0.15,,,0.15,meteohub,2013-09-11 11:50:00,
2013-09-11 06:55:00,65.3,64.9,30.07,SW,225,0.0,6.0,99,0.08,,,0.15,meteohub,2013-09-11 11:55:00,
2013-09-11 07:00:00,65.3,64.9,30.07,SW,225,0.0,6.0,99,0.08,,,0.15,meteohub,2013-09-11 12:00:00,
2013-09-11 07:05:00,65.3,64.9,30.07,SW,225,0.0,2.0,99,0.07,,,0.17,meteohub,2013-09-11 12:05:00,
2013-09-11 07:10:00,65.3,64.9,30.06,SW,225,3.0,3.0,99,0.05,,,0.17,meteohub,2013-09-11 12:10:00,
2013-09-11 07:15:00,65.3,64.9,30.06,SW,225,2.0,3.0,99,0.04,,,0.17,meteohub,2013-09-11 12:15:00,
2013-09-11 07:20:00,65.3,64.9,30.05,SE,135,1.0,3.0,99,0.04,,,0.17,meteohub,2013-09-11 12:20:00,
2013-09-11 07:25:00,65.3,64.9,30.04,ENE,68,3.0,3.0,99,0.02,,,0.17,meteohub,2013-09-11 12:25:00,
2013-09-11 07:30:00,65.1,64.8,30.04,East,90,3.0,4.0,99,0.02,,,0.17,meteohub,2013-09-11 12:30:00,
2013-09-11 07:35:00,65.1,64.8,30.04,NE,45,2.0,4.0,99,0.01,,,0.17,meteohub,2013-09-11 12:35:00,
2013-09-11 07:40:00,65.1,64.8,30.04,NE,45,0.0,4.0,99,0.01,,,0.17,meteohub,2013-09-11 12:40:00,
2013-09-11 07:45:00,65.1,64.8,30.05,SW,225,3.0,4.0,99,0.01,,,0.17,meteohub,2013-09-11 12:45:00,
2013-09-11 07:51:00,65.3,64.9,30.05,SW,225,4.0,4.0,99,0.01,,,0.17,meteohub,2013-09-11 12:51:00,
2013-09-11 07:56:00,65.3,64.9,30.05,SW,225,4.0,4.0,99,0.01,,,0.17,meteohub,2013-09-11 12:56:00,
2013-09-11 08:01:00,65.3,64.9,30.04,SW,225,4.0,4.0,99,0.00,,,0.17,meteohub,2013-09-11 13:01:00,
2013-09-11 08:06:00,65.3,64.9,30.04,SW,225,7.0,7.0,99,0.01,,,0.18,meteohub,2013-09-11 13:06:00,
2013-09-11 08:11:00,65.3,64.9,30.05,South,180,5.0,7.0,99,0.01,,,0.18,meteohub,2013-09-11 13:11:00,
2013-09-11 08:16:00,65.3,64.9,30.05,West,270,4.0,7.0,99,0.01,,,0.18,meteohub,2013-09-11 13:16:00,
2013-09-11 08:21:00,65.3,64.9,30.05,SW,225,4.0,8.0,99,0.01,,,0.18,meteohub,2013-09-11 13:21:00,
2013-09-11 08:26:00,65.3,64.9,30.05,SW,225,4.0,8.0,99,0.01,,,0.18,meteohub,2013-09-11 13:26:00,
2013-09-11 08:31:00,65.5,65.1,30.04,West,270,4.0,8.0,99,0.01,,,0.18,meteohub,2013-09-11 13:31:00,
2013-09-11 08:36:00,65.5,65.1,30.04,SW,225,2.0,6.0,99,0.01,,,0.18,meteohub,2013-09-11 13:36:00,
2013-09-11 08:41:00,65.8,65.5,30.04,SW,225,2.0,5.0,99,0.01,,,0.18,meteohub,2013-09-11 13:41:00,
2013-09-11 08:46:00,66.0,65.7,30.05,East,90,0.0,4.0,99,0.01,,,0.18,meteohub,2013-09-11 13:46:00,
2013-09-11 08:52:00,66.2,65.8,30.06,East,90,0.0,4.0,99,0.01,,,0.18,meteohub,2013-09-11 13:52:00,
2013-09-11 08:57:00,66.4,66.0,30.05,SW,225,2.0,3.0,99,0.01,,,0.18,meteohub,2013-09-11 13:57:00,
2013-09-11 09:02:00,66.7,66.4,30.06,SW,225,5.0,5.0,99,0.01,,,0.18,meteohub,2013-09-11 14:02:00,
2013-09-11 09:07:00,66.9,66.6,30.05,WSW,248,4.0,6.0,99,0.00,,,0.18,meteohub,2013-09-11 14:07:00,
2013-09-11 09:12:00,67.5,67.1,30.05,SW,225,5.0,6.0,99,0.00,,,0.18,meteohub,2013-09-11 14:12:00,
2013-09-11 09:17:00,68.2,67.8,30.05,SW,225,6.0,7.0,99,0.00,,,0.18,meteohub,2013-09-11 14:17:00,
2013-09-11 09:22:00,68.4,68.0,30.05,SW,225,6.0,7.0,99,0.00,,,0.18,meteohub,2013-09-11 14:22:00,
2013-09-11 09:27:00,68.5,68.2,30.05,SW,225,6.0,7.0,99,0.00,,,0.18,meteohub,2013-09-11 14:27:00,
2013-09-11 09:32:00,68.9,68.5,30.04,SW,225,4.0,8.0,99,0.00,,,0.18,meteohub,2013-09-11 14:32:00,
2013-09-11 09:37:00,68.9,68.5,30.04,SW,225,7.0,8.0,99,0.00,,,0.18,meteohub,2013-09-11 14:37:00,
2013-09-11 09:42:00,69.1,68.7,30.04,WNW,293,4.0,8.0,99,0.00,,,0.18,meteohub,2013-09-11 14:42:00,
2013-09-11 09:47:00,69.3,68.9,30.04,SW,225,4.0,7.0,99,0.00,,,0.18,meteohub,2013-09-11 14:47:00,
2013-09-11 09:52:00,69.4,69.1,30.04,SW,225,4.0,7.0,99,0.00,,,0.18,meteohub,2013-09-11 14:52:00,
2013-09-11 09:57:00,69.6,69.3,30.05,WSW,248,6.0,7.0,99,0.00,,,0.18,meteohub,2013-09-11 14:57:00,
2013-09-11 10:02:00,69.6,69.3,30.05,WSW,248,8.0,8.0,99,0.00,,,0.18,meteohub,2013-09-11 15:02:00,
2013-09-11 10:07:00,69.8,69.4,30.06,SW,225,8.0,8.0,99,0.00,,,0.18,meteohub,2013-09-11 15:07:00,
2013-09-11 10:12:00,70.0,69.6,30.05,NW,315,8.0,9.0,99,0.00,,,0.18,meteohub,2013-09-11 15:12:00,
2013-09-11 10:17:00,70.2,69.3,30.05,West,270,8.0,10.0,97,0.00,,,0.18,meteohub,2013-09-11 15:17:00,
2013-09-11 10:22:00,70.3,69.4,30.05,NW,315,11.0,11.0,97,0.00,,,0.18,meteohub,2013-09-11 15:22:00,
2013-09-11 10:27:00,70.5,69.6,30.06,NW,315,8.0,11.0,97,0.00,,,0.18,meteohub,2013-09-11 15:27:00,
2013-09-11 10:32:00,70.7,69.3,30.06,SW,225,8.0,11.0,95,0.00,,,0.18,meteohub,2013-09-11 15:32:00,
2013-09-11 10:37:00,70.9,69.1,30.06,NW,315,10.0,11.0,94,0.00,,,0.18,meteohub,2013-09-11 15:37:00,
2013-09-11 10:42:00,70.9,68.7,30.06,SW,225,8.0,11.0,93,0.00,,,0.18,meteohub,2013-09-11 15:42:00,
2013-09-11 10:47:00,70.7,68.5,30.05,WNW,293,6.0,11.0,93,0.00,,,0.18,meteohub,2013-09-11 15:47:00,
2013-09-11 10:52:00,70.3,67.8,30.05,NW,315,9.0,11.0,92,0.00,,,0.18,meteohub,2013-09-11 15:52:00,
2013-09-11 10:57:00,70.2,67.6,30.05,West,270,7.0,10.0,92,0.00,,,0.18,meteohub,2013-09-11 15:57:00,
2013-09-11 11:02:00,70.2,68.4,30.06,West,270,6.0,11.0,94,0.00,,,0.18,meteohub,2013-09-11 16:02:00,
2013-09-11 11:07:00,70.2,68.4,30.06,West,270,8.0,11.0,94,0.00,,,0.18,meteohub,2013-09-11 16:07:00,
2013-09-11 11:12:00,70.3,68.5,30.06,West,270,9.0,10.0,94,0.00,,,0.18,meteohub,2013-09-11 16:12:00,
2013-09-11 11:17:00,70.3,68.5,30.06,West,270,9.0,10.0,94,0.00,,,0.18,meteohub,2013-09-11 16:17:00,
2013-09-11 11:22:00,70.3,68.5,30.06,SW,225,10.0,10.0,94,0.00,,,0.18,meteohub,2013-09-11 16:22:00,
2013-09-11 11:27:00,70.7,68.5,30.06,West,270,8.0,11.0,93,0.00,,,0.18,meteohub,2013-09-11 16:27:00,
2013-09-11 11:32:00,71.2,69.1,30.06,West,270,12.0,13.0,93,0.00,,,0.18,meteohub,2013-09-11 16:32:00,
2013-09-11 11:37:00,71.4,68.4,30.06,NW,315,12.0,13.0,90,0.00,,,0.18,meteohub,2013-09-11 16:37:00,
2013-09-11 11:42:00,71.2,67.8,30.06,SW,225,9.0,13.0,89,0.00,,,0.18,meteohub,2013-09-11 16:42:00,
2013-09-11 11:47:00,71.2,67.8,30.06,West,270,8.0,12.0,89,0.00,,,0.18,meteohub,2013-09-11 16:47:00,
2013-09-11 11:52:00,71.6,68.2,30.06,NW,315,7.0,12.0,89,0.00,,,0.18,meteohub,2013-09-11 16:52:00,
2013-09-11 11:57:00,72.0,68.2,30.06,West,270,7.0,11.0,88,0.00,,,0.18,meteohub,2013-09-11 16:57:00,
2013-09-11 12:02:00,72.1,68.4,30.06,SW,225,8.0,11.0,88,0.00,,,0.18,meteohub,2013-09-11 17:02:00,
2013-09-11 12:07:00,72.3,68.2,30.06,SW,225,8.0,11.0,87,0.00,,,0.18,meteohub,2013-09-11 17:07:00,
2013-09-11 12:12:00,73.2,68.7,30.05,WSW,248,11.0,11.0,86,0.00,,,0.18,meteohub,2013-09-11 17:12:00,
2013-09-11 12:17:00,74.5,68.5,30.05,SW,225,11.0,11.0,82,0.00,,,0.18,meteohub,2013-09-11 17:17:00,
2013-09-11 12:22:00,75.4,69.1,30.05,SW,225,10.0,11.0,81,0.00,,,0.18,meteohub,2013-09-11 17:22:00,
2013-09-11 12:27:00,76.6,70.0,30.04,West,270,11.0,11.0,80,0.00,,,0.18,meteohub,2013-09-11 17:27:00,
2013-09-11 12:32:00,77.5,68.9,30.05,SW,225,11.0,12.0,75,0.00,,,0.18,meteohub,2013-09-11 17:32:00,
2013-09-11 12:37:00,76.6,68.5,30.05,West,270,11.0,13.0,76,0.00,,,0.18,meteohub,2013-09-11 17:37:00,
2013-09-11 12:42:00,76.3,68.5,30.05,WSW,248,9.0,13.0,77,0.00,,,0.18,meteohub,2013-09-11 17:42:00,
2013-09-11 12:47:00,76.3,68.5,30.05,West,270,8.0,13.0,77,0.00,,,0.18,meteohub,2013-09-11 17:47:00,
2013-09-11 12:52:00,76.1,68.7,30.06,SW,225,8.0,11.0,78,0.00,,,0.18,meteohub,2013-09-11 17:52:00,
2013-09-11 12:57:00,76.3,69.6,30.05,West,270,5.0,11.0,80,0.00,,,0.18,meteohub,2013-09-11 17:57:00,
2013-09-11 13:02:00,77.2,68.7,30.04,West,270,10.0,11.0,75,0.00,,,0.18,meteohub,2013-09-11 18:02:00,
2013-09-11 13:07:00,76.8,68.7,30.05,West,270,7.0,13.0,76,0.00,,,0.18,meteohub,2013-09-11 18:07:00,
2013-09-11 13:12:00,76.6,68.2,30.05,SW,225,10.0,13.0,75,0.00,,,0.18,meteohub,2013-09-11 18:12:00,
2013-09-11 13:17:00,77.0,68.9,30.04,West,270,9.0,17.0,76,0.00,,,0.18,meteohub,2013-09-11 18:17:00,
2013-09-11 13:22:00,77.9,69.8,30.04,NW,315,7.0,17.0,76,0.00,,,0.18,meteohub,2013-09-11 18:22:00,
2013-09-11 13:27:00,78.3,69.6,30.04,West,270,11.0,11.0,75,0.00,,,0.18,meteohub,2013-09-11 18:27:00,
2013-09-11 13:32:00,78.3,68.9,30.04,West,270,11.0,14.0,73,0.00,,,0.18,meteohub,2013-09-11 18:32:00,
2013-09-11 13:37:00,78.4,68.7,30.04,West,270,15.0,15.0,72,0.00,,,0.18,meteohub,2013-09-11 18:37:00,
2013-09-11 13:42:00,79.3,69.1,30.04,NNW,338,13.0,15.0,71,0.00,,,0.18,meteohub,2013-09-11 18:42:00,
2013-09-11 13:47:00,79.7,69.1,30.04,South,180,9.0,15.0,70,0.00,,,0.18,meteohub,2013-09-11 18:47:00,
2013-09-11 13:52:00,79.5,68.5,30.04,West,270,11.0,15.0,69,0.00,,,0.18,meteohub,2013-09-11 18:52:00,
2013-09-11 13:57:00,79.9,68.7,30.04,West,270,9.0,14.0,69,0.00,,,0.18,meteohub,2013-09-11 18:57:00,
2013-09-11 14:02:00,80.4,67.6,30.03,SW,225,14.0,14.0,65,0.00,,,0.18,meteohub,2013-09-11 19:02:00,
2013-09-11 14:07:00,80.4,67.6,30.04,West,270,10.0,14.0,65,0.00,,,0.18,meteohub,2013-09-11 19:07:00,
2013-09-11 14:12:00,80.6,68.2,30.04,NW,315,8.0,14.0,66,0.00,,,0.18,meteohub,2013-09-11 19:12:00,
2013-09-11 14:17:00,80.2,67.8,30.03,WNW,293,9.0,14.0,66,0.00,,,0.18,meteohub,2013-09-11 19:17:00,
2013-09-11 14:22:00,80.4,68.5,30.03,NW,315,11.0,11.0,67,0.00,,,0.18,meteohub,2013-09-11 19:22:00,
2013-09-11 14:27:00,81.0,68.5,30.03,West,270,8.0,11.0,66,0.00,,,0.18,meteohub,2013-09-11 19:27:00,
2013-09-11 14:32:00,81.7,68.4,30.03,West,270,10.0,11.0,64,0.00,,,0.18,meteohub,2013-09-11 19:32:00,
2013-09-11 14:37:00,81.5,68.2,30.03,West,270,11.0,11.0,64,0.00,,,0.18,meteohub,2013-09-11 19:37:00,
2013-09-11 14:42:00,81.1,67.3,30.02,SW,225,10.0,14.0,63,0.00,,,0.18,meteohub,2013-09-11 19:42:00,
2013-09-11 14:47:00,81.0,67.1,30.03,SW,225,8.0,14.0,63,0.00,,,0.18,meteohub,2013-09-11 19:47:00,
2013-09-11 14:52:00,81.9,68.0,30.02,WSW,248,11.0,13.0,63,0.00,,,0.18,meteohub,2013-09-11 19:52:00,
2013-09-11 14:57:00,81.9,67.6,30.03,SW,225,7.0,12.0,62,0.00,,,0.18,meteohub,2013-09-11 19:57:00,
2013-09-11 15:02:00,82.4,67.6,30.02,SW,225,15.0,15.0,61,0.00,,,0.18,meteohub,2013-09-11 20:02:00,
2013-09-11 15:07:00,82.4,67.1,30.03,NW,315,11.0,15.0,60,0.00,,,0.18,meteohub,2013-09-11 20:07:00,
2013-09-11 15:12:00,82.4,67.6,30.03,WNW,293,8.0,15.0,61,0.00,,,0.18,meteohub,2013-09-11 20:12:00,
2013-09-11 15:17:00,81.9,65.7,30.01,NW,315,12.0,15.0,58,0.00,,,0.18,meteohub,2013-09-11 20:17:00,
2013-09-11 15:22:00,82.0,66.4,30.02,NW,315,11.0,15.0,59,0.00,,,0.18,meteohub,2013-09-11 20:22:00,
2013-09-11 15:27:00,82.2,66.9,30.02,West,270,8.0,15.0,60,0.00,,,0.18,meteohub,2013-09-11 20:27:00,
2013-09-11 15:32:00,82.8,66.6,30.02,West,270,12.0,15.0,58,0.00,,,0.18,meteohub,2013-09-11 20:32:00,
2013-09-11 15:37:00,82.6,66.7,30.02,NW,315,13.0,15.0,59,0.00,,,0.18,meteohub,2013-09-11 20:37:00,
2013-09-11 15:42:00,82.0,66.4,30.01,NW,315,8.0,15.0,59,0.00,,,0.18,meteohub,2013-09-11 20:42:00,
2013-09-11 15:47:00,82.2,66.9,30.01,NW,315,10.0,15.0,60,0.00,,,0.18,meteohub,2013-09-11 20:47:00,
2013-09-11 15:52:00,82.4,66.2,30.02,WNW,293,14.0,15.0,58,0.00,,,0.18,meteohub,2013-09-11 20:52:00,
2013-09-11 15:57:00,82.6,66.7,30.01,NW,315,11.0,14.0,59,0.00,,,0.18,meteohub,2013-09-11 20:57:00,
2013-09-11 16:02:00,82.8,66.6,30.02,West,270,11.0,14.0,58,0.00,,,0.18,meteohub,2013-09-11 21:02:00,
2013-09-11 16:07:00,82.0,65.8,30.02,NW,315,11.0,14.0,58,0.00,,,0.18,meteohub,2013-09-11 21:07:00,
2013-09-11 16:12:00,81.7,66.0,30.01,West,270,8.0,13.0,59,0.00,,,0.18,meteohub,2013-09-11 21:12:00,
2013-09-11 16:17:00,81.3,66.0,30.02,West,270,11.0,13.0,60,0.00,,,0.18,meteohub,2013-09-11 21:17:00,
2013-09-11 16:22:00,81.0,66.7,30.02,North,0,5.0,12.0,62,0.00,,,0.18,meteohub,2013-09-11 21:22:00,
2013-09-11 16:27:00,80.8,66.6,30.02,West,270,7.0,12.0,62,0.00,,,0.18,meteohub,2013-09-11 21:27:00,
2013-09-11 16:32:00,80.6,66.9,30.02,NW,315,6.0,11.0,63,0.00,,,0.18,meteohub,2013-09-11 21:32:00,
2013-09-11 16:37:00,80.6,67.3,30.03,NW,315,4.0,11.0,64,0.00,,,0.18,meteohub,2013-09-11 21:37:00,
2013-09-11 16:42:00,80.4,66.7,30.01,West,270,10.0,10.0,63,0.00,,,0.18,meteohub,2013-09-11 21:42:00,
2013-09-11 16:47:00,80.4,66.7,30.02,West,270,11.0,11.0,63,0.00,,,0.18,meteohub,2013-09-11 21:47:00,
2013-09-11 16:52:00,80.4,66.7,30.02,NW,315,9.0,11.0,63,0.00,,,0.18,meteohub,2013-09-11 21:52:00,
2013-09-11 16:57:00,80.2,67.5,30.02,West,270,8.0,12.0,65,0.00,,,0.18,meteohub,2013-09-11 21:57:00,
2013-09-11 17:02:00,80.1,67.3,30.01,NW,315,7.0,12.0,65,0.00,,,0.18,meteohub,2013-09-11 22:02:00,
2013-09-11 17:07:00,80.1,67.3,30.02,NE,45,8.0,11.0,65,0.00,,,0.18,meteohub,2013-09-11 22:07:00,
2013-09-11 17:12:00,80.1,67.6,30.01,West,270,6.0,9.0,66,0.00,,,0.18,meteohub,2013-09-11 22:12:00,
2013-09-11 17:17:00,80.1,66.7,30.01,NW,315,8.0,9.0,64,0.00,,,0.18,meteohub,2013-09-11 22:17:00,
2013-09-11 17:22:00,80.1,67.3,30.01,NW,315,10.0,10.0,65,0.00,,,0.18,meteohub,2013-09-11 22:22:00,
2013-09-11 17:27:00,79.9,67.1,30.01,West,270,7.0,11.0,65,0.00,,,0.18,meteohub,2013-09-11 22:27:00,
2013-09-11 17:32:00,79.7,66.4,30.02,West,270,9.0,12.0,64,0.00,,,0.18,meteohub,2013-09-11 22:32:00,
2013-09-11 17:37:00,79.5,66.7,30.01,West,270,7.0,12.0,65,0.00,,,0.18,meteohub,2013-09-11 22:37:00,
2013-09-11 17:42:00,79.5,65.8,30.01,West,270,15.0,15.0,63,0.00,,,0.18,meteohub,2013-09-11 22:42:00,
2013-09-11 17:47:00,79.7,66.4,30.01,West,270,9.0,15.0,64,0.00,,,0.18,meteohub,2013-09-11 22:47:00,
2013-09-11 17:52:00,79.7,66.9,30.01,West,270,6.0,15.0,65,0.00,,,0.18,meteohub,2013-09-11 22:52:00,
2013-09-11 17:57:00,79.7,66.4,30.01,West,270,9.0,15.0,64,0.00,,,0.18,meteohub,2013-09-11 22:57:00,
2013-09-11 18:02:00,79.7,66.4,30.01,SW,225,7.0,11.0,64,0.00,,,0.18,meteohub,2013-09-11 23:02:00,
2013-09-11 18:07:00,79.9,66.6,30.01,NW,315,7.0,10.0,64,0.00,,,0.18,meteohub,2013-09-11 23:07:00,
2013-09-11 18:12:00,79.9,66.6,30.01,NE,45,9.0,10.0,64,0.00,,,0.18,meteohub,2013-09-11 23:12:00,
2013-09-11 18:17:00,79.5,66.2,30.01,NW,315,8.0,10.0,64,0.00,,,0.18,meteohub,2013-09-11 23:17:00,
2013-09-11 18:22:00,79.5,66.7,30.01,NW,315,8.0,10.0,65,0.00,,,0.18,meteohub,2013-09-11 23:22:00,
2013-09-11 18:27:00,79.2,66.4,30.01,North,0,8.0,11.0,65,0.00,,,0.18,meteohub,2013-09-11 23:27:00,
2013-09-11 18:32:00,78.6,66.4,30.01,WSW,248,6.0,11.0,66,0.00,,,0.18,meteohub,2013-09-11 23:32:00,
2013-09-11 18:37:00,78.4,66.6,30.01,West,270,4.0,8.0,67,0.00,,,0.18,meteohub,2013-09-11 23:37:00,
2013-09-11 18:42:00,78.1,66.7,30.01,NW,315,5.0,8.0,68,0.00,,,0.18,meteohub,2013-09-11 23:42:00,
2013-09-11 18:47:00,77.7,66.7,30.01,West,270,4.0,8.0,69,0.00,,,0.18,meteohub,2013-09-11 23:47:00,
2013-09-11 18:52:00,77.4,66.7,30.01,West,270,3.0,8.0,70,0.00,,,0.18,meteohub,2013-09-11 23:52:00,
2013-09-11 18:57:00,76.6,66.6,30.01,West,270,4.0,6.0,71,0.00,,,0.18,meteohub,2013-09-11 23:57:00,
2013-09-11 19:02:00,76.5,66.4,30.00,West,270,4.0,5.0,71,0.00,,,0.18,meteohub,2013-09-12 00:02:00,
2013-09-11 19:07:00,75.9,66.6,30.00,SW,225,4.0,5.0,73,0.00,,,0.18,meteohub,2013-09-12 00:07:00,
2013-09-11 19:12:00,75.6,66.7,30.00,West,270,4.0,5.0,74,0.00,,,0.18,meteohub,2013-09-12 00:12:00,
2013-09-11 19:17:00,75.4,66.9,30.00,West,270,5.0,6.0,75,0.00,,,0.18,meteohub,2013-09-12 00:17:00,
2013-09-11 19:22:00,75.0,66.6,30.00,West,270,8.0,8.0,75,0.00,,,0.18,meteohub,2013-09-12 00:22:00,
2013-09-11 19:27:00,74.8,66.7,30.00,West,270,5.0,8.0,76,0.00,,,0.18,meteohub,2013-09-12 00:27:00,
2013-09-11 19:32:00,74.7,66.6,30.00,West,270,6.0,8.0,76,0.00,,,0.18,meteohub,2013-09-12 00:32:00,
2013-09-11 19:37:00,74.7,66.6,30.00,West,270,7.0,8.0,76,0.00,,,0.18,meteohub,2013-09-12 00:37:00,
2013-09-11 19:42:00,73.9,65.8,30.00,West,270,8.0,8.0,76,0.00,,,0.18,meteohub,2013-09-12 00:42:00,
2013-09-11 19:47:00,74.1,66.0,30.00,NW,315,6.0,8.0,76,0.00,,,0.18,meteohub,2013-09-12 00:47:00,
2013-09-11 19:52:00,73.9,65.8,30.00,West,270,4.0,8.0,76,0.00,,,0.18,meteohub,2013-09-12 00:52:00,
2013-09-11 19:57:00,73.6,65.5,30.01,West,270,5.0,8.0,76,0.00,,,0.18,meteohub,2013-09-12 00:57:00,
2013-09-11 20:02:00,73.6,65.8,30.01,West,270,6.0,7.0,77,0.00,,,0.18,meteohub,2013-09-12 01:02:00,
2013-09-11 20:07:00,73.4,65.7,30.01,West,270,6.0,6.0,77,0.00,,,0.18,meteohub,2013-09-12 01:07:00,
2013-09-11 20:12:00,73.4,65.3,30.01,West,270,6.0,8.0,76,0.00,,,0.18,meteohub,2013-09-12 01:12:00,
2013-09-11 20:17:00,73.2,65.1,30.01,West,270,5.0,8.0,76,0.00,,,0.18,meteohub,2013-09-12 01:17:00,
2013-09-11 20:22:00,73.4,65.3,30.01,West,270,5.0,8.0,76,0.00,,,0.18,meteohub,2013-09-12 01:22:00,
2013-09-11 20:27:00,73.4,65.3,30.01,West,270,5.0,9.0,76,0.00,,,0.18,meteohub,2013-09-12 01:27:00,
2013-09-11 20:32:00,73.4,65.3,30.01,West,270,7.0,9.0,76,0.00,,,0.18,meteohub,2013-09-12 01:32:00,
2013-09-11 20:37:00,73.4,65.3,30.01,West,270,7.0,9.0,76,0.00,,,0.18,meteohub,2013-09-12 01:37:00,
2013-09-11 20:42:00,73.2,65.1,30.01,SW,225,8.0,8.0,76,0.00,,,0.18,meteohub,2013-09-12 01:42:00,
2013-09-11 20:47:00,72.9,65.3,30.01,West,270,4.0,8.0,77,0.00,,,0.18,meteohub,2013-09-12 01:47:00,
2013-09-11 20:52:00,72.3,65.1,30.01,West,270,5.0,8.0,78,0.00,,,0.18,meteohub,2013-09-12 01:52:00,
2013-09-11 20:57:00,72.0,65.1,30.01,NW,315,5.0,8.0,79,0.00,,,0.18,meteohub,2013-09-12 01:57:00,
2013-09-11 21:02:00,71.8,65.3,30.01,West,270,6.0,6.0,80,0.00,,,0.18,meteohub,2013-09-12 02:02:00,
2013-09-11 21:07:00,71.8,65.3,30.01,West,270,6.0,6.0,80,0.00,,,0.18,meteohub,2013-09-12 02:07:00,
2013-09-11 21:12:00,71.4,65.3,30.01,West,270,5.0,6.0,81,0.00,,,0.18,meteohub,2013-09-12 02:12:00,
2013-09-11 21:17:00,71.2,65.5,30.01,West,270,5.0,6.0,82,0.00,,,0.18,meteohub,2013-09-12 02:17:00,
2013-09-11 21:22:00,71.1,65.3,30.01,West,270,5.0,6.0,82,0.00,,,0.18,meteohub,2013-09-12 02:22:00,
2013-09-11 21:27:00,71.1,65.7,30.01,West,270,7.0,7.0,83,0.00,,,0.18,meteohub,2013-09-12 02:27:00,
2013-09-11 21:32:00,71.2,65.8,30.01,West,270,6.0,7.0,83,0.00,,,0.18,meteohub,2013-09-12 02:32:00,
2013-09-11 21:37:00,71.2,65.8,30.01,SW,225,5.0,7.0,83,0.00,,,0.18,meteohub,2013-09-12 02:37:00,
2013-09-11 21:42:00,71.2,65.8,30.01,West,270,4.0,7.0,83,0.00,,,0.18,meteohub,2013-09-12 02:42:00,
2013-09-11 21:47:00,71.1,65.7,30.02,SW,225,4.0,6.0,83,0.00,,,0.18,meteohub,2013-09-12 02:47:00,
2013-09-11 21:52:00,71.1,66.0,30.01,SW,225,5.0,5.0,84,0.00,,,0.18,meteohub,2013-09-12 02:52:00,
2013-09-11 21:57:00,70.9,66.2,30.01,WSW,248,5.0,5.0,85,0.00,,,0.18,meteohub,2013-09-12 02:57:00,
2013-09-11 22:02:00,70.9,66.2,30.01,West,270,4.0,6.0,85,0.00,,,0.18,meteohub,2013-09-12 03:02:00,
2013-09-11 22:07:00,70.9,66.2,30.02,West,270,4.0,6.0,85,0.00,,,0.18,meteohub,2013-09-12 03:07:00,
2013-09-11 22:12:00,70.5,66.2,30.02,SW,225,4.0,6.0,86,0.00,,,0.18,meteohub,2013-09-12 03:12:00,
2013-09-11 22:17:00,70.5,66.2,30.02,West,270,5.0,5.0,86,0.00,,,0.18,meteohub,2013-09-12 03:17:00,
2013-09-11 22:22:00,70.3,66.2,30.02,West,270,5.0,5.0,87,0.00,,,0.18,meteohub,2013-09-12 03:22:00,
2013-09-11 22:27:00,70.3,66.2,30.02,SW,225,5.0,7.0,87,0.00,,,0.18,meteohub,2013-09-12 03:27:00,
2013-09-11 22:32:00,70.2,66.4,30.02,SW,225,4.0,7.0,88,0.00,,,0.18,meteohub,2013-09-12 03:32:00,
2013-09-11 22:37:00,70.0,66.2,30.02,SW,225,5.0,7.0,88,0.00,,,0.18,meteohub,2013-09-12 03:37:00,
2013-09-11 22:42:00,69.8,66.4,30.02,West,270,5.0,7.0,89,0.00,,,0.18,meteohub,2013-09-12 03:42:00,
2013-09-11 22:47:00,69.6,66.2,30.02,West,270,4.0,5.0,89,0.00,,,0.18,meteohub,2013-09-12 03:47:00,
2013-09-11 22:52:00,69.4,66.4,30.02,West,270,4.0,5.0,90,0.00,,,0.18,meteohub,2013-09-12 03:52:00,
2013-09-11 22:57:00,69.3,66.2,30.02,West,270,4.0,5.0,90,0.00,,,0.18,meteohub,2013-09-12 03:57:00,
2013-09-11 23:01:00,69.1,66.0,30.02,West,270,4.0,6.0,90,0.00,,,0.18,meteohub,2013-09-12 04:01:00,
2013-09-11 23:02:00,69.1,66.0,30.02,West,270,4.0,6.0,90,0.00,,,0.18,meteohub,2013-09-12 04:02:00,
2013-09-11 23:03:00,69.1,66.0,30.02,West,270,4.0,6.0,90,0.00,,,0.18,meteohub,2013-09-12 04:03:00,
2013-09-11 23:05:00,69.1,66.0,30.02,West,270,4.0,6.0,90,0.00,,,0.18,meteohub,2013-09-12 04:05:00,
2013-09-11 23:07:00,69.1,66.0,30.02,West,270,4.0,6.0,90,0.00,,,0.18,meteohub,2013-09-12 04:07:00,
2013-09-11 23:12:00,68.5,66.2,30.01,WSW,248,4.0,6.0,92,0.00,,,0.18,meteohub,2013-09-12 04:12:00,
2013-09-11 23:17:00,68.4,66.0,30.01,WNW,293,4.0,5.0,92,0.00,,,0.18,meteohub,2013-09-12 04:17:00,
2013-09-11 23:22:00,68.0,65.7,30.02,NW,315,3.0,5.0,92,0.00,,,0.18,meteohub,2013-09-12 04:22:00,
2013-09-11 23:27:00,67.8,65.5,30.02,West,270,4.0,5.0,92,0.00,,,0.18,meteohub,2013-09-12 04:27:00,
2013-09-11 23:32:00,68.5,64.6,30.02,ESE,113,3.0,4.0,87,0.00,,,0.18,meteohub,2013-09-12 04:32:00,
2013-09-11 23:37:00,69.6,64.6,30.02,North,0,3.0,7.0,84,0.00,,,0.18,meteohub,2013-09-12 04:37:00,
2013-09-11 23:42:00,70.2,64.4,30.02,West,270,4.0,8.0,82,0.00,,,0.18,meteohub,2013-09-12 04:42:00,
2013-09-11 23:47:00,70.3,64.2,30.02,NE,45,6.0,8.0,81,0.00,,,0.18,meteohub,2013-09-12 04:47:00,
2013-09-11 23:52:00,70.3,64.2,30.02,NE,45,5.0,8.0,81,0.00,,,0.18,meteohub,2013-09-12 04:52:00,
2013-09-11 23:58:00,70.3,64.2,30.02,East,90,4.0,8.0,81,0.00,,,0.18,meteohub,2013-09-12 04:58:00,